Home   Weather   California City   Past weeks
Flag for USA

Past Weather in California City, California, USA — Yesterday and Last 2 Weeks

Now
70 °F

Clear.


Feels Like: 70 °F
Forecast: 102 / 64 °F
Wind: 7 mph from Southwest

Location: Mojave Airport

Current Time: Jul 21, 2019 at 6:16:54 am

Latest Report: Jul 21, 2019 at 5:20 am


Visibility: 10 mi

Pressure: 29.94 "Hg (27.52 "Hg at 727m altitude)

Humidity: 46%

Dew Point: 48 °F

Location of California CityLocation

Past Weather in California City — Graph

°F

California City Temperature Yesterday

Maximum temperature yesterday: 95 °F (at 2:40 pm)
Minimum temperature yesterday: 68 °F (at 3:40 am)
Average temperature yesterday: 81 °F

High & Low Weather Summary for the Past Weeks

 TemperatureHumidityPressure
High102 °F (Jul 12, 4:00 pm)46% (Jul 18, 2:40 am)30.12 "Hg (Jul 18, 2:40 am)
Low66 °F (Jul 10, 6:20 am)9% (Jul 12, 3:40 pm)29.86 "Hg (Jul 12, 5:20 pm)
Average83 °F25%29.96 "Hg
* Reported Jul 6 4:00 am — Jul 21 4:40 am, California City. Weather by CustomWeather, © 2019

Note: Actual official high and low records may vary slightly from our data, if they occured in-between our weather recording intervals... More about our weather records

Advertising

California City Weather History for the Previous 24 Hours

Scroll right to see more
 ConditionsComfort  
Time TempWeatherWind HumidityBarometerVisibility
4:40 am
Sun, Jul 21
72 °FClear.9 mph44%29.92 "Hg10 mi
4:20 am72 °FClear.No wind44%29.92 "Hg10 mi
3:40 am73 °FClear.12 mph41%29.92 "Hg10 mi
3:20 am73 °FClear.12 mph44%29.93 "Hg10 mi
3:00 am73 °FClear.13 mph44%29.93 "Hg10 mi
2:40 am73 °FClear.10 mph41%29.93 "Hg10 mi
2:00 am75 °FClear.12 mph39%29.93 "Hg10 mi
1:40 am75 °FClear.12 mph39%29.93 "Hg10 mi
1:00 am77 °FClear.10 mph36%29.93 "Hg10 mi
12:40 am77 °FClear.9 mph36%29.93 "Hg10 mi
12:00 am77 °FClear.14 mph36%29.93 "Hg10 mi
11:40 pm
Sat, Jul 20
79 °FClear.13 mph32%29.93 "Hg10 mi
11:20 pm77 °FClear.12 mph36%29.93 "Hg10 mi
11:00 pm77 °FClear.14 mph39%29.93 "Hg10 mi
10:40 pm77 °FClear.14 mph39%29.92 "Hg10 mi
10:00 pm79 °FClear.13 mph37%29.91 "Hg10 mi
9:40 pm81 °FClear.15 mph34%29.90 "Hg10 mi
9:20 pm81 °FClear.17 mph37%29.89 "Hg10 mi
9:00 pm81 °FClear.18 mph37%29.89 "Hg10 mi
8:40 pm81 °FClear.16 mph37%29.89 "Hg10 mi
8:20 pm82 °FClear.14 mph35%29.88 "Hg10 mi
8:00 pm82 °FSunny.15 mph35%29.88 "Hg10 mi
7:40 pm84 °FSunny.17 mph33%29.87 "Hg10 mi
7:20 pm86 °FSunny.16 mph29%29.87 "Hg10 mi
7:00 pm86 °FSunny.16 mph27%29.88 "Hg10 mi
6:40 pm88 °FSunny.21 mph25%29.87 "Hg10 mi
6:20 pm88 °FSunny.18 mph25%29.87 "Hg10 mi
6:00 pm90 °FSunny.21 mph24%29.87 "Hg10 mi
5:40 pm90 °FSunny.20 mph24%29.87 "Hg10 mi
5:00 pm91 °FSunny.22 mph21%29.88 "Hg10 mi
4:00 pm93 °FSunny.18 mph19%29.88 "Hg10 mi
3:40 pm93 °FSunny.20 mph19%29.88 "Hg10 mi
3:00 pm95 °FSunny.20 mph16%29.89 "Hg10 mi
2:40 pm95 °FExtremely hot.N/A16%29.89 "HgN/A
2:20 pm93 °FExtremely hot.10 mph17%29.90 "Hg10 mi
1:40 pm91 °FSunny.15 mph20%29.91 "Hg10 mi
1:00 pm91 °FSunny.13 mph18%29.92 "Hg10 mi
12:40 pm90 °FSunny.9 mph20%29.93 "Hg10 mi
12:20 pm90 °FSunny.16 mph21%29.94 "Hg10 mi
12:00 pm90 °FSunny.12 mph21%29.94 "Hg10 mi
11:40 am88 °FSunny.21 mph22%29.94 "Hg10 mi
11:20 am88 °FSunny.20 mph22%29.94 "Hg10 mi
10:40 am86 °FSunny.12 mph25%29.94 "Hg10 mi
10:20 am86 °FSunny.14 mph25%29.94 "Hg10 mi
10:00 am84 °FSunny.15 mph27%29.94 "Hg10 mi
9:40 am84 °FSunny.14 mph27%29.94 "Hg10 mi
9:20 am82 °FSunny.14 mph28%29.94 "Hg10 mi
8:40 am81 °FSunny.14 mph28%29.94 "Hg10 mi
8:20 am79 °FSunny.14 mph30%29.94 "Hg10 mi
8:00 am77 °FSunny.14 mph30%29.93 "Hg10 mi
7:40 am75 °FSunny.17 mph31%29.93 "Hg10 mi
7:20 am73 °FSunny.18 mph33%29.92 "Hg10 mi
6:20 am70 °FSunny.21 mph35%29.91 "Hg10 mi
6:00 am70 °FSunny.18 mph35%29.91 "Hg10 mi
Weather by CustomWeather, © 2019

See weather overview